Regional Weather Roundup
Issued by NWS Cleveland, OH

Home | Current Version | Previous Version | Graphics & Text | Print | Product List | Glossary On
Versions: 1 2 3 4 5 6 7 8 9 10 11 12 13 14 15 16 17 18 19 20 21 22 23 24 25 26 27 28 29 30 31 32 33 34 35 36 37 38 39 40 41 42 43 44 45 46 47 48 49 50
000
ASUS41 KCLE 270302
RWRCLE
OHIO REGIONAL WEATHER ROUNDUP
NATIONAL WEATHER SERVICE CLEVELAND, OH
1100 PM EDT MON SEP 26 2016

NOTE: "FAIR" INDICATES FEW OR NO CLOUDS BELOW 12,000 FEET WITH NO
SIGNIFICANT WEATHER AND/OR OBSTRUCTIONS TO VISIBILITY.

OHZ001>008-015>018-024>027-034-035-043-044-270400-
   NORTHWEST OHIO

CITY           SKY/WX    TMP DP  RH WIND       PRES   REMARKS
DEFIANCE       CLEAR     54  41  61 SW6       29.96S
FINDLAY        CLEAR     56  42  59 SW9       29.96F
TOLEDO EXPRESS CLEAR     49  48  97 CALM      29.94F
TOLEDO EXEC    CLEAR     54  45  71 SW8       29.95F
LIMA           CLEAR     56  45  66 SW6       29.99S
$$

OHZ009>014-019>023-028>033-038-089-270400-
   NORTHEAST OHIO

CITY           SKY/WX    TMP DP  RH WIND       PRES   REMARKS
CLE-HOPKINS    CLEAR     58  46  64 S9        29.98F
CLE-LAKEFRONT  CLEAR     59  49  69 S10       29.95S
CUY CO. ARPT   CLEAR     59  50  72 S9        29.96F
LORAIN-ELYRIA  CLEAR     52  45  77 S7        29.97F
ASHTABULA      CLEAR     56  55  97 S7        29.96F
AKRON-CANTON   CLEAR     53  48  83 SW7       30.00S
WOOSTER        CLEAR     50  47  89 S3        30.00F
MANSFIELD      CLEAR     50  46  86 S7        29.99F
YOUNGSTOWN     PTCLDY    55  54  96 S6        29.99S
$$

OHZ042-051>053-060>062-070>072-077>081-270400-
  SOUTHWEST OHIO

CITY           SKY/WX    TMP DP  RH WIND       PRES   REMARKS
CINC-COVINGTON CLEAR     54  50  86 SW5       30.06S
CINC-LUNKEN    CLEAR     54  53  97 S5        30.07S
HAMILTON       CLEAR     51  48  89 CALM      30.06S
DAYTON         CLEAR     57  45  64 SW10      30.04S
WRIGHT-PAT AFB CLEAR     52  49  90 S5        30.03S
DAYTON GENERAL CLEAR     54  48  80 S6        30.04S
WILMINGTON     CLEAR     52  50  93 SW5       30.05S
$$

OHZ036-037-039>041-045>050-054>059-063>069-073>076-082>088-270400-
  CENTRAL AND SOUTHEAST OHIO

CITY           SKY/WX    TMP DP  RH WIND       PRES   REMARKS
COLUMBUS       CLEAR     56  51  84 SW5       30.02S
OSU AIRPORT    CLEAR     55  49  80 SW6       30.02S
BOLTON FIELD   CLEAR     50  47  91 SW6       30.03F
RICKENBACK AFB CLEAR     52  49  89 SW7       30.03S
NEWARK         PTCLDY    49  48  97 CALM      30.02S
MARION         CLEAR     54  46  74 SW8       30.00F
LANCASTER      CLEAR     53  48  83 SW3       30.04S
ZANESVILLE     PTCLDY    55  54  96 S5        30.03S
NEW PHILLY     PTCLDY    52  51  97 SE3       30.02S
$$




USA.gov is the U.S. government's official web portal to all federal, state and local government web resources and services.